Regional Weather Roundup
Issued by NWS

Home | Current Version | Previous Version | Text Only | Print | Product List | Glossary On
Versions: 1 2 3 4 5 6 7 8 9 10 11 12 13 14 15 16 17 18 19 20 21 22 23 24 25 26 27 28 29 30 31 32 33 34 35 36 37 38 39 40 41 42 43 44 45 46 47 48 49 50
000
ASUS46 KPQR 290310
RWROR

OREGON REGIONAL WEATHER ROUNDUP
NATIONAL WEATHER SERVICE PORTLAND OR
800 PM PDT THU AUG 28 2014

NOTE: "FAIR" INDICATES FEW OR NO CLOUDS BELOW 12,000 FEET WITH
NO SIGNIFICANT WEATHER AND/OR OBSTRUCTIONS TO VISIBILITY.

ORZ001>013-290400-
NORTHWEST OREGON


CITY           SKY/WX    TMP DP  RH WIND       PRES   REMARKS
ASTORIA        CLOUDY    64  60  87 NW7       30.06S
NEWPORT        CLOUDY    59  59 100 N6        30.09S FOG
PORTLAND       PTCLDY    77  59  53 NW9       30.00S
VANCOUVER WA   CLEAR     77  56  48 N6        29.99F
SCAPPOOSE      CLEAR     74  58  57 N7        29.99F
HILLSBORO      CLEAR     74  59  59 NE6       30.00S
AURORA         CLEAR     78  55  44 NE8       30.00S
MCMINNVILLE    CLEAR     75  56  51 SW12      29.99S
SALEM          CLEAR     77  55  46 NW8       29.98S
CORVALLIS      CLEAR     73  55  53 W16       30.01S
EUGENE         PTCLDY    78  54  43 NW10      29.99R
$$

ORZ021-028-290400-
SOUTHWEST OREGON


CITY           SKY/WX    TMP DP  RH WIND       PRES   REMARKS
NORTH BEND     PTCLDY    63  63 100 N12       30.07S
BROOKINGS      CLEAR     59  55  86 SE5       30.01S
ROSEBURG       CLEAR     82  52  35 N8        29.98R
SEXTON SUMMIT  CLEAR     69  50  50 N8        30.11S
MEDFORD        CLEAR     87  44  22 N9        29.95R
$$

ORZ009-041-290400-
COLUMBIA GORGE


CITY           SKY/WX    TMP DP  RH WIND       PRES   REMARKS
TROUTDALE      CLEAR     78  55  44 NW3       29.98S
THE DALLES     CLEAR     80  48  32 NW15      29.92S
$$

ORZ029>031-042>050-061>064-290400-
EASTERN OREGON


CITY           SKY/WX    TMP DP  RH WIND       PRES   REMARKS
REDMOND        CLEAR     76  41  28 NW10      30.04R
BEND           CLEAR     75  36  23 NW9       30.08R
KLAMATH FALLS  PTCLDY    76  41  28 NW9       30.10R
LAKEVIEW       PTCLDY    72  36  26 W7        30.13S
HERMISTON      CLEAR     80  45  28 W6        29.89S
PENDLETON      CLEAR     79  32  18 W5        29.94S
JOHN DAY       CLEAR     77  40  26 CALM      30.05R
MEACHAM        CLEAR     64  24  21 CALM      30.09R
LA GRANDE      CLEAR     72  37  28 NW6       30.01R
BAKER CITY     PTCLDY    70  42  36 NW12      30.03R
BURNS          CLEAR     70  39  32 W10       30.05R
ROME             N/A     82  36  19 W5        30.02R
ONTARIO        PTCLDY    80  53  39 W3        29.90R
$$



USA.gov is the U.S. government's official web portal to all federal, state and local government web resources and services.